Location: Berville
(49.1893°N, 2.0748°E)
Time: 18:26:05
(UTC+00:00)

FENGYUN 1C DEB - Pass Details

Date: 02 March 2024
Orbit: 768 x 960 km, 99.0° (Epoch: 12 April)

Event Time Altitude Azimuth Distance (km) Brightness Sun altitude
Exits shadow 20:01:39 44° 66° (ENE) 1,302 ? -24.1°
Maximum altitude 20:01:42 44° 65° (ENE) 1,301 ? -24.1°
Drops below altitude 10° 20:07:18 10° 355° (N) 2,657 ? -25.0°
Sets 20:09:48 0° 350° (N) 3,583 ? -25.4°
